[[{"header":{"parameterUnit":"m.s-1","parameterCategory":1,"la1":30.2992,"la2":30.254,"lo1":-89.0895,"lo2":-89.0443,"dy":0.0025,"dx":0.0025,"nx":19,"ny":19,"refTime":"2026-04-12T09:00:00:Z","depth":0,"parameterNumber":2,"parameterNumberName":"U-component_of_WINDS"},"data":[0,0,0,-2.4367,-2.4369,-2.4456,-2.4457,-2.4564,-2.4565,0,0,0,0,0,0,0,0,0,0,0,-2.4339,-2.4339,-2.4367,-2.4369,-2.4456,-2.4457,-2.4564,-2.4565,0,0,0,0,0,0,0,0,0,0,0,-2.4339,-2.4339,-2.434,-2.437,-2.4456,-2.4457,-2.4564,-2.45,0,0,0,0,0,0,0,0,0,0,-2.4416,-2.4387,-2.4339,-2.434,-2.437,-2.4456,-2.4457,-2.4497,-2.4504,-2.4523,0,-2.4539,0,-2.4554,-2.4572,-2.4572,0,0,0,-2.4371,-2.4381,-2.4407,-2.434,-2.4371,-2.4456,-2.4418,-2.4501,-2.4509,-2.4532,-2.4541,-2.4545,-2.4556,-2.4573,-2.4573,-2.4679,-2.4679,0,0,-2.4367,-2.4353,-2.4401,-2.4412,-2.4398,-2.4415,-2.442,-2.4505,-2.4514,-2.4541,-2.4548,-2.4558,-2.4573,-2.4574,-2.4678,-2.4679,0,0,0,-2.4351,-2.435,-2.4374,-2.4407,-2.4423,-2.4417,-2.4424,-2.451,-2.4519,-2.4549,-2.4559,-2.4574,-2.4575,-2.4678,-2.4679,-2.4684,0,0,0,-2.4349,-2.4341,-2.4371,-2.4364,-2.4421,-2.4468,-2.4426,-2.4513,-2.4523,-2.4558,-2.4574,-2.4576,-2.4678,-2.4678,-2.4683,-2.4689,0,0,0,-2.4334,-2.4339,-2.4351,-2.4363,-2.44,-2.4467,-2.448,-2.4516,-2.4529,-2.4573,-2.4577,-2.4677,-2.4678,-2.4682,-2.4688,-2.4713,0,0,0,-2.4315,-2.4354,-2.4351,-2.4399,-2.4399,-2.447,-2.448,-2.4533,-2.4571,-2.4575,-2.4678,-2.4679,-2.4682,-2.4687,-2.4712,-2.4731,-2.4738,0,0,-2.4357,-2.4359,-2.4389,-2.4388,-2.4456,-2.4458,-2.4527,-2.4574,-2.4591,-2.4649,-2.4652,-2.4684,-2.4687,-2.4712,-2.4783,-2.4788,0,0,0,-2.4398,-2.4419,-2.444,-2.4476,-2.4513,-2.4546,-2.4585,-2.4603,-2.4653,-2.4618,-2.4701,-2.4703,-2.4718,-2.4728,-2.4733,-2.4747,-2.4683,-2.4683,-2.4683,-2.4438,-2.4457,-2.4508,-2.4539,-2.4573,-2.4614,-2.4644,-2.4675,-2.4684,-2.4704,-2.472,-2.476,-2.4771,-2.4775,-2.4789,-2.4733,-2.4733,-2.4733,-2.4733,-2.4501,-2.4534,-2.4547,-2.4601,-2.4622,-2.4667,-2.4709,-2.4714,-2.476,-2.4749,-2.4764,-2.4749,-2.478,-2.4794,-2.4734,-2.4734,-2.4733,-2.4733,-2.4733,-2.4528,-2.4548,-2.4569,-2.4624,-2.4664,-2.4694,-2.4737,-2.4755,-2.4773,-2.4787,-2.4807,-2.4807,-2.4808,-2.4795,-2.4796,-2.4796,-2.4796,-2.4796,-2.4796,-2.4548,-2.4572,-2.4606,-2.4651,-2.4677,-2.4713,-2.4755,-2.4781,-2.4815,-2.4825,-2.4825,-2.4832,-2.478,-2.4765,-2.4798,-2.4798,-2.4798,-2.4797,-2.4797,-2.4603,-2.4594,-2.4646,-2.4672,-2.4727,-2.4765,-2.4789,-2.4841,-2.4865,-2.4886,-2.4892,-2.485,-2.4853,-2.4849,-2.4838,-2.4887,-2.4887,-2.4887,-2.4887,-2.4625,-2.4629,-2.4687,-2.4728,-2.477,-2.4796,-2.4856,-2.489,-2.4924,-2.494,-2.4936,-2.4923,-2.4919,-2.4924,-2.4919,-2.4908,-2.4975,-2.4975,-2.4975,-2.466,-2.4669,-2.4716,-2.4748,-2.4793,-2.4831,-2.4888,-2.4934,-2.4971,-2.4979,-2.4954,-2.495,-2.4929,-2.4921,-2.4926,-2.4918,-2.4898,0,0]},{"header":{"parameterUnit":"m.s-1","parameterCategory":1,"la1":30.2992,"la2":30.254,"lo1":-89.0895,"lo2":-89.0443,"dy":0.0025,"dx":0.0025,"nx":19,"ny":19,"refTime":"2026-04-12T09:00:00:Z","depth":0,"parameterNumber":3,"parameterNumberName":"V-component_of_WINDS"},"data":[0,0,0,4.9601,4.9601,4.9622,4.9622,4.9652,4.9652,0,0,0,0,0,0,0,0,0,0,0,4.9597,4.9598,4.9601,4.9601,4.9622,4.9622,4.9652,4.9652,0,0,0,0,0,0,0,0,0,0,0,4.9597,4.9598,4.9598,4.9602,4.9622,4.9622,4.9652,4.9635,0,0,0,0,0,0,0,0,0,0,4.9614,4.9614,4.9598,4.9598,4.9602,4.9622,4.9622,4.9634,4.9636,4.9645,0,4.9653,0,4.9653,4.9655,4.9655,0,0,0,4.9599,4.9612,4.9616,4.9598,4.9602,4.9622,4.9612,4.9635,4.9637,4.9647,4.9654,4.9655,4.9654,4.9655,4.9655,4.9714,4.9714,0,0,4.9598,4.9602,4.9614,4.9617,4.9615,4.9611,4.9613,4.9636,4.9643,4.9654,4.9655,4.9654,4.9655,4.9655,4.9714,4.9714,0,0,0,4.9596,4.9602,4.9604,4.9616,4.9619,4.9612,4.9613,4.9642,4.9643,4.9656,4.9655,4.9655,4.9656,4.9713,4.9714,4.9737,0,0,0,4.9596,4.9601,4.9604,4.9607,4.9619,4.9631,4.9619,4.9641,4.9644,4.9655,4.9655,4.9656,4.9713,4.9714,4.9736,4.9747,0,0,0,4.9595,4.96,4.9604,4.9607,4.9616,4.9631,4.9632,4.9642,4.9643,4.9655,4.9656,4.9713,4.9713,4.9734,4.9745,4.9765,0,0,0,4.9596,4.9624,4.9605,4.9636,4.9616,4.9645,4.9632,4.9654,4.9666,4.9656,4.9713,4.9714,4.9734,4.9744,4.9763,4.9782,4.9791,0,0,4.9633,4.9628,4.9646,4.963,4.9664,4.9642,4.9679,4.9686,4.9683,4.9704,4.9705,4.9736,4.9745,4.9764,4.9835,4.9842,0,0,0,4.966,4.9673,4.9681,4.9694,4.9701,4.9708,4.9709,4.9712,4.973,4.9695,4.9748,4.9753,4.9765,4.9774,4.9779,4.9789,4.9718,4.9718,4.9718,4.9718,4.9714,4.9744,4.9743,4.9755,4.9757,4.9767,4.9772,4.9762,4.9775,4.9781,4.9825,4.9836,4.984,4.985,4.9791,4.9791,4.9791,4.9791,4.9772,4.9791,4.978,4.9805,4.9801,4.9822,4.9826,4.9819,4.9838,4.9819,4.9829,4.9809,4.9847,4.9856,4.9793,4.9793,4.9792,4.9792,4.9792,4.981,4.9818,4.9823,4.9842,4.9858,4.9856,4.9875,4.987,4.9865,4.9875,4.9882,4.9881,4.9881,4.9879,4.9879,4.9879,4.9879,4.9879,4.9879,4.9847,4.9852,4.9869,4.9881,4.989,4.99,4.9904,4.9912,4.992,4.9915,4.9915,4.9905,4.9852,4.9838,4.9882,4.9881,4.9881,4.9881,4.9881,4.9905,4.9892,4.9919,4.9928,4.9942,4.9959,4.9953,4.997,4.9976,4.9986,4.9975,4.9936,4.9931,4.9926,4.9915,4.9976,4.9976,4.9976,4.9976,4.9937,4.9934,4.9962,4.9977,4.9991,4.9989,5.002,5.0024,5.0026,5.0029,5.002,5.0005,5.0001,4.9998,4.9992,4.9981,5.0057,5.0057,5.0057,4.9972,4.9971,4.9998,5.0001,5.0013,5.0022,5.0052,5.007,5.0069,5.0061,5.0032,5.0029,5.0005,4.9997,4.9988,4.9978,4.9959,0,0]}]]